LTCILTAT

Guest
Details From LTCI - VAN
To LTAT - ERHAC
Flight Number -
Tags generated
Created
Modified
Stats Distance 248 nm / 460 km
Max Altitude 28,500 ft / 8,687 m
Waypoints 7
Social Downloads 0
Likes 0
Share VATSIM

Download

Looking for another format? Having issues loading an existing format? Contact us
Advertisement - Login to hide

Notes

Basic altitude profile: - Ascent Rate: 2200ft/min - Ascent Speed: 220kts - Cruise Altitude: 32000ft - Cruise Speed: 290kts - Descent Rate: 1200ft/min - Descent Speed: 180kts Options: - Use NATs: yes - Use PACOTS: yes - Use low airways: yes - Use high airways: yes

Route

LTCI VAN G81 BAYIR UG81 PALUT LTAT

ID Type Via Altitude Latitude Longitude Leg Dist Tot Dist Heading (true) Name
O LTCI APT - 0 ft / 0 m 38.46822˚ 43.33230˚ - 0 nm - VAN
VAN VOR - 100 ft / 30 m 38.46519˚ 43.32508˚ 0 nm 0 nm 242° / 242° VAN VOR-DME
BEYAZ FIX G81 (AWY-LO) 12,500 ft / 3,810 m 38.51556˚ 42.79972˚ 24 nm 25 nm 277° / 277° -
BAYIR FIX G81 (AWY-LO) 28,500 ft / 8,687 m 38.59472˚ 41.40389˚ 65 nm 90 nm 275° / 274° -
NAREN FIX UG81 (AWY-HI) 28,500 ft / 8,687 m 38.63056˚ 40.82500˚ 27 nm 118 nm 275° / 274° -
PALUT FIX UG81 (AWY-HI) 28,500 ft / 8,687 m 38.69694˚ 39.52889˚ 60 nm 179 nm 274° / 273° -
O LTAT APT - 0 ft / 0 m 38.43535˚ 38.09101˚ 69 nm 248 nm 257° / 256° ERHAC

Altitude Profile

Advertisement - Login to hide

Weather


0- 5 10 15 20 25 30 35+ Temperature / ° C

Clouds and Precipitation
Forecast for 2018-05-21 18:00 UTC. Updated 20 minutes ago

Ground ~20,000 ft ~40,000 ft Winds

LTCI

Details ICAO LTCI (VAN)
Name VAN
Region Turkey
Timezone Europe/Istanbul (UTC+3.0)
Stats Elevation 5,480 ft / 1,670 m (AMSL)
Location 38.468221° 43.332300°
Runways 1
Magnetic Variation 5.800° E

METAR

LTCI 211450Z 28004KT 240V310 9999 FEW025CB SCT035 BKN070 20/07 Q1019 TEMPO -TSRA

Decode

TAF

Not found

Departure Runways

ID Width Length Bearing (true) Bearing (mag) Surface Threshold Offset Overrun Length
03 148 ft / 45 m 9,018 ft / 2,749 m 37.57° 31.77° Asphalt 0 ft / 0 m 196 ft / 60 m
21 148 ft / 45 m 9,018 ft / 2,749 m 217.59° 211.79° Asphalt 0 ft / 0 m 196 ft / 60 m

LTAT

Details ICAO LTAT (MLX)
Name ERHAC
Region Turkey
Timezone Europe/Istanbul (UTC+3.0)
Stats Elevation 2,828 ft / 862 m (AMSL)
Location 38.435346° 38.091007°
Runways 1
Magnetic Variation 5.740° E

METAR

LTAT 211505Z 33009KT 9999 FEW030CB BKN035 26/12 Q1015 RETS NOSIG RMK RWY03 27010KT

Decode

TAF

Not found

Destination Runways

ID Width Length Bearing (true) Bearing (mag) Surface Threshold Offset Overrun Length
03 148 ft / 45 m 11,000 ft / 3,353 m 31.39° 25.65° Asphalt 0 ft / 0 m 868 ft / 265 m
21 148 ft / 45 m 11,000 ft / 3,353 m 211.40° 205.66° Asphalt 0 ft / 0 m 895 ft / 273 m

Popular Alternatives